Location: Hopville
(44.8032°N, 123.1329°W)
Time: 16:56:54
(UTC+00:00)

Cosmos 1908 - Pass Details

Date: 24 January 2021
Orbit: 512 x 528 km, 82.5° (Epoch: 28 February)

Event Time Altitude Azimuth Distance (km) Brightness Sun altitude
Rises 13:12:59 0° 173° (S) 2,611 6.9 -25.9°
Reaches altitude 10° 13:15:08 10° 167° (SSE) 1,731 6.0 -25.5°
Maximum altitude 13:18:46 45° 94° (E) 709 4.2 -24.9°
Drops below altitude 10° 13:22:26 10° 21° (NNE) 1,751 6.1 -24.2°
Sets 13:24:38 0° 15° (NNE) 2,646 6.9 -23.8°
